Tiempo cada hora Alihe

Hoy, 2 Agosto, Lunes

Tiempo Temperatura Precipitaciones Viento Presión Humedad
00:00 +10°C° 0 mm 1 mps 712 mmHg 95%
01:00 +10°C° 0 mm 1 mps 712 mmHg 96%
02:00 +10°C° 0 mm 1 mps 712 mmHg 96%
03:00 +10°C° 0 mm 1 mps 712 mmHg 96%
04:00 +10°C° 0 mm 1 mps 713 mmHg 96%
05:00 +10°C° 0 mm 1 mps 713 mmHg 96%
06:00 +12°C° 0 mm 1 mps 713 mmHg 85%
07:00 +15°C° 0 mm 1 mps 714 mmHg 75%
08:00 +19°C° 0 mm 1 mps 714 mmHg 65%
09:00 +21°C° 0 mm 1 mps 714 mmHg 58%
10:00 +23°C° 0 mm 1 mps 714 mmHg 52%
11:00 +25°C° 0 mm 1 mps 714 mmHg 46%
12:00 +25°C° 0 mm 1 mps 714 mmHg 45%
13:00 +26°C° 0 mm 1 mps 714 mmHg 44%
14:00 +27°C° 0 mm 1 mps 714 mmHg 44%
15:00 +26°C° 0 mm 1 mps 714 mmHg 49%
16:00 +26°C° 0 mm 1 mps 714 mmHg 55%
17:00 +25°C° 0 mm 2 mps 714 mmHg 60%
18:00 +23°C° 0 mm 2 mps 714 mmHg 72%
19:00 +20°C° 0 mm 1 mps 714 mmHg 83%
20:00 +18°C° 0 mm 1 mps 714 mmHg 94%
21:00 +16°C° 0 mm 1 mps 714 mmHg 94%
22:00 +15°C° 0 mm 0 mps 714 mmHg 95%
23:00 +14°C° 0 mm 0 mps 714 mmHg 95%

Mañana, 3 Agosto, Martes

Tiempo Temperatura Precipitaciones Viento Presión Humedad
00:00 +14°C° 0 mm 0 mps 714 mmHg 95%
01:00 +14°C° 0 mm 0 mps 713 mmHg 95%
02:00 +14°C° 0 mm 0 mps 713 mmHg 95%
03:00 +13°C° 0 mm 0 mps 713 mmHg 95%
04:00 +13°C° 0 mm 0 mps 713 mmHg 95%
05:00 +14°C° 0 mm 1 mps 713 mmHg 95%
06:00 +16°C° 0 mm 1 mps 713 mmHg 86%
07:00 +20°C° 0 mm 1 mps 714 mmHg 77%
08:00 +22°C° 0 mm 1 mps 714 mmHg 69%
09:00 +23°C° 0 mm 1 mps 714 mmHg 63%
10:00 +24°C° 0 mm 2 mps 713 mmHg 58%
11:00 +25°C° 0 mm 2 mps 713 mmHg 52%
12:00 +24°C° 0 mm 2 mps 713 mmHg 56%
13:00 +23°C° 0 mm 2 mps 712 mmHg 60%
14:00 +23°C° 0 mm 2 mps 712 mmHg 64%
15:00 +20°C° 0.2 mm 2 mps 712 mmHg 74%
16:00 +19°C° 0.2 mm 2 mps 712 mmHg 85%
17:00 +18°C° 0.2 mm 1 mps 712 mmHg 95%
18:00 +16°C° 0.9 mm 1 mps 711 mmHg 96%
19:00 +16°C° 0.9 mm 1 mps 711 mmHg 97%
20:00 +16°C° 0.9 mm 1 mps 711 mmHg 98%
21:00 +16°C° 0.3 mm 1 mps 711 mmHg 98%
22:00 +15°C° 0.3 mm 1 mps 710 mmHg 98%
23:00 +15°C° 0.3 mm 1 mps 710 mmHg 98%

Pasado mañana, 4 Agosto, Miércoles

Tiempo Temperatura Precipitaciones Viento Presión Humedad
00:00 +15°C° 0.2 mm 1 mps 710 mmHg 98%
01:00 +15°C° 0.2 mm 1 mps 710 mmHg 98%
02:00 +15°C° 0.2 mm 1 mps 709 mmHg 98%
03:00 +15°C° 0 mm 1 mps 709 mmHg 98%
04:00 +14°C° 0 mm 1 mps 709 mmHg 98%
05:00 +14°C° 0 mm 1 mps 709 mmHg 98%
06:00 +15°C° 0 mm 1 mps 709 mmHg 96%
07:00 +16°C° 0 mm 1 mps 709 mmHg 94%
08:00 +15°C° 0 mm 0 mps 709 mmHg 92%
09:00 +18°C° 0 mm 1 mps 709 mmHg 86%
10:00 +20°C° 0 mm 1 mps 709 mmHg 79%
11:00 +21°C° 0 mm 1 mps 709 mmHg 73%
12:00 +21°C° 0 mm 1 mps 708 mmHg 72%
13:00 +21°C° 0 mm 1 mps 708 mmHg 72%
14:00 +22°C° 0 mm 1 mps 708 mmHg 72%
15:00 +21°C° 0.2 mm 1 mps 708 mmHg 78%
16:00 +20°C° 0.2 mm 1 mps 708 mmHg 84%
17:00 +19°C° 0.2 mm 1 mps 708 mmHg 91%
18:00 +19°C° 0 mm 1 mps 708 mmHg 93%
19:00 +18°C° 0 mm 1 mps 708 mmHg 95%
20:00 +15°C° 0 mm 0 mps 708 mmHg 97%
21:00 +15°C° 0 mm 0 mps 708 mmHg 98%
22:00 +15°C° 0 mm 0 mps 708 mmHg 98%
23:00 +15°C° 0 mm 0 mps 707 mmHg 98%

5 Agosto, Jueves

Tiempo Temperatura Precipitaciones Viento Presión Humedad
00:00 +15°C° 0 mm 0 mps 707 mmHg 98%
01:00 +15°C° 0 mm 0 mps 707 mmHg 97%
02:00 +15°C° 0 mm 0 mps 707 mmHg 97%
03:00 +15°C° 0 mm 0 mps 707 mmHg 97%
04:00 +15°C° 0 mm 0 mps 707 mmHg 97%
05:00 +15°C° 0 mm 0 mps 707 mmHg 96%
06:00 +15°C° 0 mm 0 mps 707 mmHg 94%
07:00 +16°C° 0 mm 0 mps 707 mmHg 91%
08:00 +19°C° 0 mm 1 mps 707 mmHg 88%
09:00 +18°C° 2.2 mm 1 mps 707 mmHg 90%
10:00 +18°C° 2.2 mm 1 mps 707 mmHg 92%
11:00 +18°C° 2.2 mm 1 mps 707 mmHg 94%
12:00 +18°C° 2.1 mm 1 mps 706 mmHg 94%
13:00 +18°C° 2.1 mm 1 mps 706 mmHg 95%
14:00 +16°C° 2.1 mm 0 mps 706 mmHg 96%
15:00 +17°C° 0 mm 0 mps 706 mmHg 94%
16:00 +17°C° 0 mm 0 mps 706 mmHg 92%
17:00 +18°C° 0 mm 0 mps 706 mmHg 90%
18:00 +17°C° 0 mm 0 mps 706 mmHg 92%
19:00 +16°C° 0 mm 0 mps 706 mmHg 94%
20:00 +16°C° 0 mm 0 mps 706 mmHg 96%
21:00 +15°C° 0 mm 0 mps 706 mmHg 96%
22:00 +14°C° 0 mm 0 mps 706 mmHg 96%
23:00 +14°C° 0 mm 0 mps 706 mmHg 97%

6 Agosto, Viernes

Tiempo Temperatura Precipitaciones Viento Presión Humedad
00:00 +13°C° 0 mm 0 mps 705 mmHg 97%
01:00 +13°C° 0 mm 0 mps 705 mmHg 97%
02:00 +13°C° 0 mm 0 mps 705 mmHg 97%
03:00 +14°C° 0 mm 1 mps 705 mmHg 97%
04:00 +14°C° 0 mm 1 mps 706 mmHg 97%
05:00 +14°C° 0 mm 1 mps 706 mmHg 97%
06:00 +15°C° 0 mm 0 mps 706 mmHg 91%
07:00 +17°C° 0 mm 0 mps 706 mmHg 85%
08:00 +19°C° 0 mm 0 mps 707 mmHg 79%
09:00 +21°C° 0.1 mm 0 mps 707 mmHg 74%
10:00 +23°C° 0.1 mm 0 mps 707 mmHg 68%
11:00 +24°C° 0.1 mm 0 mps 707 mmHg 62%
12:00 +23°C° 1 mm 0 mps 707 mmHg 69%
13:00 +23°C° 1 mm 0 mps 707 mmHg 76%
14:00 +22°C° 1 mm 0 mps 707 mmHg 83%
15:00 +22°C° 1.5 mm 0 mps 707 mmHg 85%
16:00 +21°C° 1.5 mm 0 mps 707 mmHg 87%
17:00 +21°C° 1.5 mm 0 mps 707 mmHg 89%
18:00 +20°C° 0.4 mm 0 mps 707 mmHg 91%
19:00 +18°C° 0.4 mm 0 mps 707 mmHg 93%
20:00 +17°C° 0.4 mm 0 mps 707 mmHg 94%
21:00 +16°C° 0 mm 0 mps 708 mmHg 95%
22:00 +16°C° 0 mm 0 mps 708 mmHg 96%
23:00 +15°C° 0 mm 0 mps 708 mmHg 96%

7 Agosto, Sábado

Tiempo Temperatura Precipitaciones Viento Presión Humedad
00:00 +15°C° 0 mm 0 mps 708 mmHg 96%
01:00 +15°C° 0 mm 0 mps 708 mmHg 97%
02:00 +14°C° 0 mm 0 mps 708 mmHg 97%
03:00 +14°C° 0 mm 0 mps 708 mmHg 97%
04:00 +14°C° 0 mm 0 mps 709 mmHg 97%
05:00 +14°C° 0 mm 0 mps 709 mmHg 98%
06:00 +16°C° 0 mm 0 mps 709 mmHg 94%
07:00 +18°C° 0 mm 0 mps 710 mmHg 91%
08:00 +20°C° 0 mm 0 mps 710 mmHg 88%
09:00 +21°C° 0.1 mm 0 mps 710 mmHg 80%
10:00 +23°C° 0.1 mm 0 mps 710 mmHg 72%
11:00 +26°C° 0.1 mm 1 mps 710 mmHg 64%
12:00 +27°C° 0.2 mm 1 mps 710 mmHg 63%
13:00 +27°C° 0.2 mm 1 mps 710 mmHg 61%
14:00 +27°C° 0.2 mm 1 mps 710 mmHg 60%
15:00 +26°C° 0.2 mm 1 mps 710 mmHg 66%
16:00 +26°C° 0.2 mm 1 mps 710 mmHg 73%
17:00 +25°C° 0.2 mm 2 mps 710 mmHg 79%
18:00 +23°C° 0.2 mm 1 mps 710 mmHg 85%
19:00 +21°C° 0.2 mm 1 mps 710 mmHg 90%
20:00 +20°C° 0.2 mm 1 mps 710 mmHg 96%
21:00 +19°C° 0 mm 1 mps 711 mmHg 96%
22:00 +19°C° 0 mm 1 mps 711 mmHg 97%
23:00 +18°C° 0 mm 1 mps 711 mmHg 97%
Mostrar más

Necesitamos Su Consentimiento

Meteoprog y nuestros Proveedores de Servicios pueden almacenar y acceder a sus datos personales como cookies, identificadores de dispositivo u otras tecnologías similares de su dispositivo y procesar dichos datos para personalizar contenido y anuncios, además de ofrecer funciones de redes sociales y analizar el tráfico.

  • Almacenar y/o acceder a información en su dispositivo

    Se puede almacenar o acceder a cookies, identificadores de dispositivo u otra información de su dispositivo para los fines anteriormente indicados.

  • Anuncios y contenido personalizados, medición de anuncios y contenido, percepciones del público, y desarrollo de productos

    Los anuncios y el contenido pueden personalizarse en base a su perfil. Se pueden añadir más datos para personalizar mejor los anuncios y contenidos. Se puede medir el rendimiento de los anuncios y contenidos. Se puede obtener la percepción sobre el público que ha visto los anuncios y contenidos. Dichos datos pueden usarse para desarrollar o mejorar la experiencia del usuario, sistemas y software.

Al hacer clic en ‘Estoy De Acuerdo’ usted permitirá el uso de las cookies, identificadores de dispositivo, balizas web u otras tecnologías similares indicadas. Su configuración puede cambiarse desde el navegador de su dispositivo.

Para ciertos fines, los intereses legítimos pueden ser considerados por encima del consentimiento. Puede leer más sobre ello en nuestra Política de Privacidad y Cookies.